Theta_e
318 317 315 315 317 319 320 320 320 320 320 319 319 320 319 320 320 319 320 319 319 317 312 312 311 309 310 309 307 307 307 308 309 310 311 310 307 309 309 310 311 309 311 312 311 312 311 311 311 312 316 316 314 316 313 315 323 334 340 330 321 322 324 321 319 318 320 321 315 312 314 317 317 312 310 309 313 317 314 318 317 318 323 321 321 321 325 333
317 317 315 315 318 319 319 320 319 319 319 319 319 320 319 319 319 319 319 318 319 318 314 309 308 307 307 307 307 307 307 307 308 310 311 308 308 309 308 309 310 311 313 311 311 312 312 311 310 313 319 318 313 315 316 313 321 335 333 324 327 330 322 319 319 316 316 316 316 314 312 314 316 314 311 312 317 316 316 317 316 324 325 322 322 322 326 332
317 317 316 316 318 319 319 319 318 318 318 319 319 319 319 318 318 318 319 318 319 318 313 309 308 307 307 307 306 307 308 307 308 309 309 308 308 308 309 310 310 312 313 311 311 311 312 312 310 314 319 318 315 316 319 316 318 326 328 325 331 331 320 315 317 317 315 314 318 315 311 312 313 313 312 314 318 316 319 320 316 322 325 329 325 321 328 332
317 318 317 317 318 318 318 318 318 318 318 318 318 319 318 318 318 317 318 317 317 316 312 309 308 307 307 306 307 309 308 308 309 309 308 309 309 307 309 311 313 314 313 310 311 311 311 311 310 315 319 317 317 318 317 316 316 318 324 328 325 320 317 314 314 315 314 312 317 316 312 313 311 311 312 315 318 317 321 320 317 321 325 336 327 322 330 331
318 318 318 317 317 318 318 317 316 317 318 318 318 318 317 317 317 317 317 317 316 314 311 309 307 306 306 306 308 310 309 310 310 310 310 309 308 308 309 313 316 314 312 311 310 310 311 310 311 317 319 317 317 318 316 312 314 316 316 320 320 317 315 314 312 313 312 311 314 315 314 313 310 311 314 316 317 319 320 316 319 318 321 336 329 324 330 331
318 318 317 317 315 316 317 315 316 317 317 317 317 316 316 317 317 316 317 317 315 312 311 309 307 306 306 306 309 309 309 311 311 313 314 311 308 308 311 315 316 313 311 312 310 309 311 310 312 316 318 317 316 317 315 310 312 319 315 312 316 316 314 313 312 312 311 313 315 315 313 312 312 313 313 315 317 318 314 311 311 309 313 325 325 325 330 331
317 317 316 315 314 315 315 316 316 316 317 317 316 316 316 316 316 316 316 316 314 311 311 309 306 306 306 306 309 310 309 310 311 314 315 314 311 310 313 315 314 312 312 311 310 311 312 312 314 316 319 318 315 313 314 311 313 322 318 312 313 312 312 312 311 310 310 314 314 311 310 312 315 313 310 313 317 314 307 303 303 306 314 321 323 327 330 331
317 316 315 314 313 314 316 316 315 315 316 316 316 316 316 315 315 315 316 316 314 311 309 308 306 306 307 308 311 313 310 310 312 314 315 314 313 312 313 313 312 312 312 311 311 312 312 312 313 314 317 315 314 313 312 312 315 321 318 313 312 311 312 311 311 312 311 312 310 309 312 313 313 310 310 315 317 312 307 308 312 314 319 323 325 327 328 330
316 315 314 313 313 314 315 316 315 316 316 316 316 315 315 315 315 315 315 315 314 311 308 307 306 306 308 308 311 312 310 311 312 313 315 313 312 312 312 312 311 312 312 311 311 311 311 313 313 312 314 312 312 314 313 314 315 318 316 314 314 312 312 312 312 315 313 311 310 311 314 313 310 308 312 317 315 309 310 323 331 328 330 328 326 326 327 329
315 314 313 312 313 314 314 315 315 315 315 316 316 314 314 314 314 314 314 315 313 310 307 307 306 307 308 308 308 308 310 313 312 313 314 312 311 311 312 312 311 311 311 311 309 309 311 312 311 310 312 312 312 313 312 313 313 315 316 315 314 313 313 313 314 314 313 312 311 313 314 313 309 309 315 315 308 307 319 336 332 334 343 332 325 325 326 327
315 314 313 312 312 313 313 315 314 314 316 316 315 314 313 313 314 314 314 314 311 308 307 307 306 307 309 308 306 307 311 315 314 314 313 311 312 311 312 312 311 312 311 310 309 309 311 309 307 308 311 311 312 313 311 310 311 313 315 314 313 312 313 313 314 314 314 312 311 313 313 313 310 312 318 313 306 308 322 339 333 335 340 328 325 324 323 325
314 313 313 312 312 312 314 314 314 315 316 315 314 313 313 313 314 314 314 313 310 308 307 307 307 308 309 307 306 308 312 315 315 313 312 311 312 311 312 312 311 312 311 310 310 310 310 309 308 311 311 311 312 314 312 310 312 314 315 315 314 315 313 312 313 314 314 312 312 314 312 314 314 315 318 310 307 311 318 331 335 335 331 324 326 324 322 323
314 313 313 313 312 313 313 313 314 315 315 314 313 312 313 314 313 314 314 312 309 308 308 307 307 309 309 308 308 308 312 316 315 312 311 311 312 313 313 313 313 313 312 311 311 310 310 309 311 312 312 314 314 310 310 312 313 313 314 317 316 315 313 310 312 314 313 311 310 312 311 317 318 314 312 308 308 313 317 323 325 327 326 322 323 323 324 321
314 314 314 312 312 313 312 313 314 314 314 313 312 313 314 313 314 314 312 310 308 308 308 307 308 308 307 308 309 309 313 315 314 312 311 311 313 313 313 313 314 313 312 312 312 311 310 309 310 311 310 314 312 308 314 317 316 314 311 317 317 315 314 311 312 316 312 310 309 308 311 316 317 312 307 307 310 312 316 321 318 319 320 319 319 319 322 319
315 314 313 312 312 313 312 313 314 313 313 312 312 313 313 312 313 312 310 309 308 308 308 308 309 308 306 308 309 311 314 314 313 311 311 313 313 313 312 313 313 313 313 313 313 310 309 310 314 315 311 310 310 312 319 320 322 319 311 316 316 312 315 314 313 317 314 311 310 309 311 315 315 313 309 307 311 312 314 320 318 318 318 317 317 315 317 315
315 314 313 312 312 312 312 312 313 313 312 311 312 313 312 312 312 311 310 308 308 308 308 310 310 308 306 308 309 311 313 313 313 311 312 313 313 313 312 312 312 313 313 312 312 310 310 313 313 313 312 311 313 317 319 319 323 322 315 319 318 313 315 313 313 314 314 313 313 310 312 317 316 315 313 309 311 312 314 319 320 321 319 317 315 313 314 313
315 314 313 312 312 311 311 311 313 312 311 312 312 312 311 311 310 310 309 308 309 309 309 312 311 306 306 308 310 313 312 312 312 312 313 312 313 313 311 312 311 310 311 311 312 311 311 314 310 310 316 314 314 317 316 316 318 318 319 320 317 316 314 313 314 312 311 314 314 312 312 316 317 316 316 312 310 312 315 320 321 320 319 317 314 312 311 311
314 314 313 312 311 311 310 311 311 311 311 311 311 310 310 310 310 311 311 310 311 309 309 310 308 308 308 307 310 312 311 312 312 312 313 312 312 312 312 312 309 309 313 312 312 313 313 315 314 317 319 314 313 316 316 316 316 316 318 316 314 316 313 314 317 312 311 313 314 315 314 315 317 315 316 312 310 313 316 317 317 316 316 315 314 314 313 311
314 314 313 312 312 311 310 310 310 310 311 311 311 311 311 310 310 311 310 310 310 308 309 308 307 311 311 309 312 312 311 312 312 312 312 312 311 311 312 311 312 314 314 314 313 313 318 318 315 317 317 314 314 315 318 321 320 318 319 318 319 321 316 315 317 310 310 314 315 317 316 317 317 316 317 314 310 312 314 314 315 315 314 314 314 314 313 315
314 313 313 312 311 311 310 310 310 311 311 311 312 311 310 310 311 312 311 310 308 306 309 309 308 312 311 311 313 312 312 311 312 313 312 312 311 312 312 310 316 318 315 318 316 312 318 319 316 317 315 314 315 314 316 317 316 317 318 321 322 320 317 314 314 311 310 315 317 319 319 319 317 316 317 313 309 311 314 316 318 318 318 317 317 317 315 315
314 313 312 312 311 310 310 310 310 311 311 312 312 310 309 309 309 311 312 311 307 303 308 309 308 311 311 311 312 310 311 312 311 313 312 311 312 313 313 312 316 316 315 320 317 311 315 318 317 319 315 313 313 313 315 314 315 317 316 319 318 318 318 313 312 312 310 312 316 317 318 318 317 317 316 312 310 314 317 318 320 321 320 316 316 318 316 312
313 313 312 311 311 310 309 310 310 311 311 312 311 311 313 309 307 309 310 310 306 303 307 309 309 313 311 309 310 309 312 315 314 314 313 311 312 313 314 315 316 315 314 316 316 313 315 319 319 316 311 310 311 313 317 317 320 321 317 316 317 317 317 312 311 312 309 312 317 318 317 318 317 316 315 313 312 314 314 315 316 317 318 315 313 314 313 310
313 312 312 311 310 310 309 310 310 310 311 312 310 311 314 309 307 308 308 310 308 305 309 310 312 318 313 310 311 310 312 315 315 315 312 311 313 313 314 315 316 316 314 314 316 316 317 318 316 309 308 311 313 313 317 317 319 321 318 317 316 316 316 314 312 312 310 310 315 317 316 317 316 315 316 311 307 310 311 311 312 310 312 313 311 311 309 310
312 312 311 311 310 310 310 310 310 311 311 311 311 311 311 309 308 309 309 310 309 309 309 308 312 319 315 311 311 311 311 312 313 314 311 311 314 313 313 315 315 315 314 314 315 316 317 312 307 306 309 314 314 312 317 319 316 316 321 326 323 318 318 316 312 313 312 309 310 313 313 321 325 323 323 314 307 310 310 310 313 310 308 308 309 309 308 308
312 311 311 310 310 310 310 310 311 311 311 311 311 309 309 310 308 307 310 310 309 309 308 307 311 316 313 310 310 310 311 311 311 311 309 311 313 312 312 312 314 314 314 314 314 315 314 307 304 308 310 314 315 313 319 322 316 314 320 329 327 322 321 317 315 316 316 312 309 309 312 326 332 329 326 319 316 316 311 312 316 314 311 310 311 310 308 307
312 311 310 310 310 310 310 312 311 310 311 310 310 309 310 311 308 308 311 311 309 308 308 309 310 311 311 311 312 311 311 311 309 309 309 310 310 310 311 311 311 314 314 313 313 314 310 306 308 312 313 314 315 314 316 319 318 314 315 318 321 324 324 322 318 316 317 313 307 308 314 321 324 325 324 319 318 319 314 316 318 314 313 313 311 310 308 308
311 310 310 310 309 310 311 311 311 310 312 311 310 310 310 311 309 308 311 311 310 310 309 308 306 309 312 310 310 311 312 313 310 309 310 309 308 308 312 312 311 313 313 312 314 312 308 309 311 313 316 316 315 315 313 316 319 314 312 315 321 325 325 324 322 319 319 312 310 316 317 314 316 318 319 315 316 319 318 318 317 314 315 315 313 312 311 311
311 310 311 310 309 311 311 310 310 310 312 311 309 310 310 311 309 308 311 309 310 310 308 307 306 309 311 307 309 311 311 313 314 312 308 307 308 309 315 315 314 316 312 311 315 312 310 314 314 314 317 317 315 316 313 317 321 315 310 313 318 321 324 327 326 324 317 309 315 322 313 311 318 321 319 313 313 317 319 318 317 316 316 316 317 318 318 318
310 310 311 310 310 312 311 310 310 310 310 309 309 310 310 310 307 308 312 308 308 310 307 306 308 310 310 308 311 313 311 313 315 312 308 307 307 308 313 313 314 317 311 312 318 313 310 313 312 313 315 315 315 313 313 321 322 312 307 312 314 317 321 323 323 324 317 313 321 319 309 310 317 324 323 313 310 317 320 317 317 317 318 318 319 319 321 323
310 311 311 310 311 312 312 311 309 309 310 310 310 310 309 310 309 308 308 309 311 310 307 307 309 312 311 310 312 313 314 314 314 312 311 311 310 308 309 308 313 320 317 318 320 314 310 309 310 312 313 313 311 310 311 317 315 309 312 316 315 320 323 321 322 320 314 319 324 314 310 310 309 320 324 313 312 317 317 316 317 320 322 320 321 320 321 323
311 311 310 310 311 312 313 311 309 310 311 311 311 309 308 313 316 311 307 311 314 310 307 308 309 311 311 310 313 313 314 315 313 313 313 312 311 311 310 309 315 321 320 320 319 315 312 311 311 312 312 312 312 311 308 309 310 314 322 320 315 321 323 323 325 317 313 325 322 310 309 310 308 317 319 314 316 315 313 314 316 321 323 321 322 322 322 324
310 310 310 311 312 313 313 312 310 311 312 311 310 310 310 312 312 310 308 309 313 310 309 310 309 311 312 311 314 314 316 316 313 313 316 314 311 311 313 315 319 318 315 318 318 316 316 315 312 311 311 312 315 315 310 310 315 317 319 319 319 322 319 322 329 319 316 323 313 307 309 309 310 315 312 314 317 315 314 314 316 319 320 322 324 322 321 325
310 310 310 312 313 313 313 312 311 312 312 309 309 313 316 313 309 311 310 308 310 311 311 312 311 312 312 312 314 315 315 314 313 313 314 315 312 310 313 315 318 319 317 319 320 316 317 318 314 313 313 311 313 316 314 315 317 314 314 318 321 322 315 317 321 313 313 318 309 306 309 311 314 313 313 315 311 311 314 313 314 314 315 318 316 315 320 324
310 311 312 313 312 312 313 313 312 312 310 307 308 312 315 313 311 312 310 309 312 312 312 313 311 311 312 313 314 315 315 312 311 313 313 313 313 312 313 311 313 322 323 319 318 318 318 319 316 315 314 312 312 315 318 318 315 313 315 316 318 325 324 320 320 319 319 318 311 306 310 319 318 309 311 314 309 310 313 312 312 312 312 310 308 313 321 322
312 313 313 313 312 313 315 314 313 312 308 307 308 310 310 310 313 314 309 310 314 313 312 311 311 311 312 313 313 312 316 315 312 313 314 314 313 313 314 310 312 322 322 315 315 316 315 316 315 313 311 312 314 314 316 317 314 313 313 313 314 321 323 316 313 317 317 313 312 310 314 321 316 308 310 310 309 312 312 312 313 316 315 309 312 322 324 322
314 314 315 315 314 315 314 313 312 310 307 307 309 310 309 311 317 316 309 311 315 312 310 311 312 313 312 313 314 311 314 316 314 313 314 313 313 312 312 311 312 316 316 316 318 316 314 313 313 313 311 312 313 312 313 316 315 313 311 314 315 315 318 314 306 306 308 310 313 313 314 317 312 310 315 313 312 312 311 312 314 319 319 313 318 327 322 320
315 315 315 315 316 316 313 312 312 309 308 309 309 310 310 311 316 318 314 312 313 310 311 312 311 313 312 312 315 313 313 316 313 313 314 313 313 313 313 313 312 312 313 316 317 317 317 315 312 315 314 310 309 311 313 313 312 314 316 316 311 309 315 316 311 313 313 313 317 314 313 315 312 312 318 316 312 312 313 315 314 316 317 314 320 324 319 317
314 314 315 316 317 316 315 314 312 310 310 310 309 313 317 315 314 318 317 310 310 311 313 314 312 312 312 312 314 313 313 315 314 313 314 313 313 314 314 313 312 311 311 312 314 316 321 317 310 312 315 312 311 313 314 311 308 314 318 313 311 314 317 313 312 319 316 312 321 320 311 309 310 315 320 314 312 316 316 314 314 315 316 318 322 320 317 316
312 314 315 314 315 316 317 315 312 311 310 309 309 312 318 320 316 316 315 310 312 315 312 314 314 312 311 311 313 312 312 314 313 313 314 313 313 313 312 313 313 311 309 312 313 313 319 322 313 310 313 313 313 315 316 315 310 310 310 307 313 322 321 314 312 317 315 311 318 322 317 315 313 316 320 313 315 323 320 315 315 317 320 324 321 317 314 315
311 316 315 312 314 317 316 314 313 312 310 310 311 311 315 320 316 313 312 312 316 315 313 318 316 312 313 312 311 312 313 313 312 313 314 312 311 311 310 312 313 311 310 313 315 313 315 318 316 313 312 314 317 317 316 316 312 310 310 309 313 315 314 313 312 313 317 318 318 317 319 325 321 314 316 314 315 319 318 315 316 319 323 324 319 317 315 313
312 316 315 311 313 315 315 316 315 314 312 311 313 316 318 319 317 315 313 313 316 314 316 321 318 315 317 313 311 312 313 314 312 313 315 311 310 312 311 311 311 310 310 311 314 317 315 313 316 316 315 316 318 314 311 314 312 310 311 312 313 313 313 315 312 311 312 314 318 316 313 322 324 314 313 313 311 311 310 312 318 321 320 319 316 318 319 316
313 315 313 311 312 313 316 318 315 315 316 314 314 318 318 316 316 317 314 313 317 316 315 319 320 320 319 314 313 314 313 314 313 313 316 314 312 313 312 313 311 308 310 311 312 316 318 320 321 319 317 316 313 307 306 312 313 311 312 313 313 313 315 319 318 315 309 306 310 313 312 320 325 314 310 310 308 310 310 311 317 316 312 315 316 317 320 320
313 312 310 310 312 313 316 318 315 316 318 315 314 315 315 316 317 315 314 315 317 317 320 323 319 315 316 316 315 313 312 314 312 313 316 315 312 312 312 314 312 309 311 311 311 313 316 321 320 317 318 318 312 309 308 310 311 311 314 315 314 314 317 324 325 319 313 310 311 311 312 321 328 319 314 313 312 314 315 314 316 314 312 317 319 317 318 319
312 310 309 309 311 313 317 317 316 316 314 314 316 315 314 316 316 314 317 320 319 320 325 324 315 312 315 317 316 315 314 313 312 312 316 316 312 311 312 315 312 310 312 313 313 311 313 318 318 315 318 319 316 315 315 314 313 315 318 316 315 316 316 317 316 312 312 316 316 315 315 318 324 323 318 316 316 317 317 316 317 317 317 317 318 320 321 319
310 309 309 309 309 312 315 316 316 316 314 314 317 316 315 315 314 314 319 320 318 319 322 319 314 315 318 316 316 316 315 315 314 314 315 316 314 312 314 315 311 311 319 322 318 311 313 318 317 314 315 315 316 316 317 317 315 315 319 316 313 315 313 313 315 313 313 316 314 316 316 312 314 320 316 313 316 315 315 317 317 318 320 320 321 324 324 324
309 309 309 309 309 310 311 313 315 315 314 315 316 316 317 318 315 314 316 317 315 317 318 316 315 318 319 316 316 315 313 315 316 315 316 317 316 314 313 313 313 315 320 320 315 313 320 318 313 313 314 312 314 317 317 319 317 316 318 315 312 312 312 316 320 316 314 315 312 314 315 311 313 318 314 314 319 320 318 319 318 318 321 323 323 323 323 325
308 309 308 308 309 309 308 310 314 315 314 315 315 314 316 318 317 315 314 314 315 316 318 315 315 319 319 316 318 317 315 317 316 314 315 316 316 313 311 312 315 316 316 314 312 317 321 316 312 314 314 313 317 320 318 318 318 316 316 315 313 313 313 316 317 314 314 315 313 313 312 310 312 317 318 319 320 322 321 319 318 318 320 321 319 320 322 324
306 308 307 307 309 309 308 310 312 313 314 315 315 314 315 316 317 317 315 314 313 315 318 317 316 319 318 316 318 318 315 317 317 315 315 315 316 315 313 313 313 312 313 313 314 319 319 314 314 313 311 313 318 320 318 316 316 316 316 316 314 313 313 314 313 313 314 314 312 312 314 312 311 313 317 319 319 321 320 316 314 315 316 318 318 320 323 326
303 305 304 304 307 307 308 309 310 311 313 314 315 315 315 316 316 316 315 315 315 315 318 321 319 319 319 317 320 321 316 316 317 316 316 316 317 318 318 317 314 312 314 313 313 317 318 316 317 313 309 312 316 318 317 315 315 315 315 315 314 313 313 312 313 312 312 313 313 314 316 315 311 311 314 315 318 319 314 312 313 313 316 320 321 324 326 328
302 304 304 305 306 306 308 310 309 310 311 312 315 314 314 315 315 315 315 316 317 316 315 319 320 318 317 319 322 322 317 317 320 319 317 317 318 319 321 321 317 313 314 314 313 313 311 314 317 313 310 314 315 315 315 315 315 315 315 314 313 312 312 312 312 312 312 313 313 312 314 313 310 312 314 313 314 313 310 311 315 315 317 319 321 325 327 328
299 299 301 306 307 305 308 310 308 309 310 310 312 313 314 315 314 315 315 314 317 317 315 317 319 317 316 318 321 320 317 320 322 320 316 316 319 320 319 319 317 315 315 315 316 314 310 314 316 314 314 316 313 312 314 313 312 313 315 315 313 312 312 311 311 312 313 313 313 313 314 312 310 313 314 312 313 313 312 313 313 313 315 317 319 323 324 325
298 297 299 306 308 305 306 309 308 309 310 310 311 311 313 314 314 315 316 314 314 315 315 315 317 317 317 318 319 318 317 318 320 317 314 315 319 319 316 315 316 317 316 316 318 317 315 318 320 316 317 317 309 309 314 314 313 314 314 314 313 312 311 311 311 312 312 312 314 313 312 311 313 316 315 313 313 313 313 313 312 312 313 314 315 317 318 319
Wind_Speed
23 22 23 26 24 20 19 18 18 18 16 16 16 15 16 16 16 16 16 17 15 14 17 19 19 19 18 18 19 18 15 13 12 11 12 15 17 15 14 12 9 11 11 8 9 9 5 3 4 5 5 2 3 1 2 3 3 4 3 3 1 3 3 5 7 7 4 2 4 4 4 7 4 2 1 1 3 3 0 2 2 1 3 4 4 3 9 19
24 22 23 25 23 20 20 18 19 18 16 16 15 15 15 15 15 15 15 15 15 14 16 18 19 19 20 20 19 17 14 11 9 12 19 20 16 15 15 14 11 10 11 10 12 13 8 3 4 5 4 2 2 2 1 2 3 3 3 3 2 5 5 5 7 6 2 2 5 4 3 4 5 4 3 2 1 2 2 3 3 3 5 4 4 3 15 20
23 23 23 25 23 21 20 18 18 17 16 16 15 14 14 15 15 15 14 14 15 14 15 17 18 20 20 19 16 14 11 5 7 14 23 23 19 17 14 13 12 11 11 10 12 13 10 9 9 6 4 3 1 2 3 2 1 2 4 3 4 5 3 3 5 6 3 2 7 5 3 2 2 3 2 3 2 0 4 4 1 3 7 5 1 7 18 19
24 24 24 23 21 20 19 17 16 16 15 16 15 14 14 15 15 15 13 13 14 14 16 17 18 19 18 16 13 12 8 3 6 12 19 20 20 18 14 12 12 12 11 10 10 11 11 12 9 4 4 2 3 3 3 1 1 2 3 4 4 3 1 1 4 5 3 3 6 6 5 2 3 3 2 5 4 2 5 6 7 8 9 6 4 11 17 18
25 24 23 22 19 18 17 17 16 15 16 15 15 14 15 15 14 14 13 12 13 15 16 17 18 17 16 15 13 14 9 3 6 10 14 17 17 18 15 12 13 13 12 10 10 11 11 11 7 4 4 2 2 3 1 2 1 3 1 3 4 3 3 1 2 3 2 3 5 7 6 4 3 2 3 7 6 5 5 5 8 9 7 7 8 14 16 16
25 24 23 22 20 18 17 17 16 15 15 15 14 14 15 15 14 14 13 12 13 15 17 18 18 17 16 14 14 13 8 2 3 4 10 15 16 18 15 13 13 13 12 11 12 12 10 7 5 3 3 2 2 3 2 3 1 3 0 1 3 3 3 0 1 1 3 6 6 6 4 3 5 1 1 6 7 5 3 3 5 5 6 9 11 16 15 15
26 25 23 22 23 19 17 17 16 16 15 14 14 14 15 14 14 13 12 12 13 15 17 17 17 16 15 13 12 7 4 5 3 4 6 12 17 17 14 13 13 13 14 14 13 9 6 6 5 5 5 3 3 3 3 1 4 4 2 1 3 2 3 0 0 1 3 5 5 3 2 3 5 3 2 4 9 4 2 4 2 3 8 11 12 16 17 18
27 26 24 22 23 20 17 16 17 17 14 14 14 14 14 13 13 13 12 12 12 15 16 17 17 16 15 14 9 3 3 6 3 2 5 11 15 15 14 13 13 14 15 16 14 9 6 7 6 4 4 2 4 4 3 3 5 4 3 3 3 2 2 1 3 4 3 3 1 3 4 1 4 3 1 7 9 4 4 2 3 6 8 9 10 14 16 17
27 26 24 23 24 22 17 16 17 16 15 15 14 13 13 11 12 12 11 11 12 15 17 18 17 16 16 12 7 3 5 6 4 2 5 10 12 13 14 11 14 15 14 14 13 12 8 6 5 5 5 3 5 5 3 3 1 2 4 4 4 1 3 2 4 5 3 1 2 5 2 4 2 1 3 7 6 5 3 2 4 6 6 7 8 13 16 15
28 26 23 24 25 23 20 17 17 17 16 16 13 12 13 11 11 11 11 10 12 16 17 18 18 18 16 8 5 4 5 4 7 6 7 10 10 12 13 11 14 16 14 11 11 12 7 6 7 5 6 3 4 3 0 2 3 4 6 6 6 2 2 3 5 5 2 2 3 4 2 3 1 1 4 5 4 4 1 3 1 4 6 7 6 10 14 14
28 25 23 23 24 25 23 18 18 19 17 15 13 12 12 11 11 10 10 10 13 17 18 19 19 19 14 6 5 5 3 3 7 7 9 10 9 11 11 11 13 15 13 8 10 13 7 9 11 6 2 3 4 3 1 1 3 5 7 7 6 3 4 5 5 4 2 2 3 4 3 3 2 1 6 4 5 2 4 2 1 3 5 5 5 6 9 11
27 25 22 20 24 27 23 20 20 19 16 15 14 13 10 10 11 10 10 11 14 17 18 19 20 19 11 4 3 5 3 4 7 8 10 10 9 10 8 10 12 12 13 8 10 13 6 12 15 7 0 5 5 2 2 2 4 3 5 5 5 6 6 5 3 3 2 2 2 3 1 4 2 5 8 4 6 3 4 2 2 3 4 3 4 4 6 10
26 24 21 21 25 27 24 22 20 18 16 16 16 12 9 10 10 9 10 12 15 17 17 18 19 18 9 2 5 7 5 5 7 9 10 9 8 9 8 10 11 9 10 8 10 10 8 13 13 7 2 6 3 3 5 4 3 2 3 4 2 5 4 4 3 3 2 2 3 2 1 6 6 9 8 5 5 3 1 4 3 3 4 4 4 4 6 9
25 24 21 22 26 27 25 24 20 18 17 17 15 11 9 10 8 8 10 12 15 16 16 17 18 14 6 1 5 7 8 6 8 10 10 10 9 9 8 8 8 7 7 7 9 9 10 13 12 8 3 4 4 3 5 5 4 3 2 2 3 2 3 4 3 1 3 1 4 5 2 6 7 9 6 5 3 0 3 5 3 3 4 4 4 4 6 8
25 24 22 23 25 25 26 25 21 18 17 15 14 11 10 9 7 7 9 12 14 16 15 16 17 10 3 2 3 7 9 7 9 11 10 12 12 9 7 8 7 6 7 8 11 11 11 14 11 6 2 2 5 6 4 4 4 3 2 1 2 3 4 6 3 2 3 0 5 7 2 6 7 8 6 5 2 3 4 5 4 4 5 4 4 5 6 7
25 24 22 23 22 22 25 24 21 18 16 14 12 11 10 8 7 8 10 12 13 15 14 13 14 8 3 2 2 6 7 6 10 11 11 13 12 8 9 11 9 9 10 10 13 11 9 9 6 2 3 3 4 6 4 4 4 4 2 3 1 3 2 4 2 3 2 1 3 4 2 3 3 6 6 4 3 4 2 6 6 5 5 5 5 5 6 6
25 24 23 23 21 21 22 22 20 17 14 13 12 10 9 8 9 9 10 13 14 14 12 11 13 6 1 2 3 4 4 6 11 12 12 13 11 12 13 9 7 10 11 11 10 6 6 6 2 0 3 3 3 6 5 2 2 2 2 3 2 3 3 2 2 3 4 3 0 2 1 6 6 7 7 5 0 1 4 6 7 6 5 5 5 5 6 7
26 24 23 22 21 21 20 19 19 16 14 14 12 11 11 11 11 10 13 16 14 11 7 6 9 4 2 4 4 3 4 9 13 11 12 12 12 14 11 6 6 10 9 6 4 3 4 4 2 2 3 3 2 4 5 4 5 5 3 4 2 2 3 2 3 3 3 4 2 0 3 9 10 10 10 7 2 3 6 6 6 7 6 6 5 5 6 7
26 24 23 22 21 20 19 19 18 16 16 14 15 17 16 14 11 9 11 13 9 5 3 4 6 3 4 5 3 5 8 12 12 9 10 12 12 11 8 8 8 7 6 3 2 1 2 3 4 4 3 3 5 5 7 7 8 10 6 5 5 3 3 5 4 4 1 3 3 4 4 7 9 10 11 8 2 3 7 5 6 7 6 6 5 6 6 7
25 23 23 21 21 19 17 18 18 17 17 17 21 18 12 9 6 4 3 2 2 2 2 5 6 3 1 1 4 11 11 9 6 5 10 11 12 11 6 4 5 6 4 4 2 1 3 4 4 5 7 8 7 6 6 5 7 9 6 5 4 4 2 3 3 5 1 3 3 3 3 7 9 11 12 8 2 3 8 7 8 8 7 7 6 7 7 9
25 24 23 21 20 18 17 18 18 18 19 21 21 11 4 6 4 5 4 1 2 1 1 2 4 3 1 2 8 11 7 4 3 3 8 9 10 10 1 2 5 3 0 3 3 2 4 5 7 6 7 7 6 7 8 7 7 6 6 5 2 2 2 2 1 3 3 1 2 1 2 9 10 10 11 7 3 6 8 8 9 9 8 7 7 9 9 8
26 24 23 21 19 17 17 17 19 20 19 20 13 3 3 4 2 9 8 2 2 1 3 1 4 3 1 3 7 5 4 4 3 1 3 5 5 6 1 3 7 4 0 3 4 2 2 4 7 6 6 8 6 5 9 8 7 6 4 5 2 2 2 1 1 3 3 0 2 2 3 9 10 10 11 9 7 8 7 7 8 7 8 8 7 8 8 8
26 24 22 20 18 17 17 18 20 19 20 18 10 4 4 4 7 13 8 4 1 1 3 2 3 3 2 2 5 3 5 4 5 3 2 4 3 3 5 5 6 5 3 4 6 6 4 5 5 5 8 10 6 4 9 8 5 4 4 5 3 2 2 1 2 2 3 2 1 1 2 7 7 6 8 7 5 6 6 6 8 7 8 10 8 6 6 8
26 24 21 19 18 17 18 20 20 18 20 18 13 9 8 8 14 13 4 4 2 1 1 0 2 4 3 2 5 4 4 2 4 4 2 4 4 2 5 5 5 6 4 6 7 7 4 4 1 7 6 9 8 4 7 7 3 1 3 5 4 4 4 3 2 1 2 3 2 1 3 6 4 4 7 5 4 5 5 5 7 6 7 9 8 8 8 9
26 23 21 20 19 20 22 20 18 19 18 14 14 11 10 13 16 9 4 3 1 2 1 0 0 2 3 3 3 4 4 2 1 2 1 5 6 3 3 2 3 5 4 6 8 5 3 2 3 8 5 6 8 4 5 6 4 0 3 5 6 8 6 3 3 4 3 2 3 4 2 5 5 4 6 4 6 7 5 5 8 6 5 6 7 8 7 7
25 23 23 22 21 25 23 13 14 19 14 11 16 13 11 15 15 6 4 4 1 1 1 2 1 4 5 2 1 4 5 1 1 1 2 4 3 3 4 1 2 3 5 5 5 2 1 2 3 7 6 6 7 5 6 5 6 2 3 4 6 8 9 7 5 4 2 1 2 3 2 4 6 5 6 4 7 10 7 5 7 6 6 5 5 6 6 7
24 24 26 25 26 30 18 7 15 18 8 11 18 14 11 15 13 3 5 4 2 2 3 0 1 5 7 0 1 6 4 3 2 2 2 2 1 3 4 3 2 2 3 4 2 1 3 3 4 6 6 6 6 5 5 6 8 3 2 5 8 9 9 7 6 4 2 2 2 4 3 1 5 5 6 5 6 9 8 7 7 6 6 6 5 6 5 6
24 26 29 27 31 29 12 9 21 17 8 12 18 15 12 15 10 2 5 2 2 3 3 1 1 4 4 2 4 5 2 1 5 2 2 3 1 3 4 5 5 4 1 4 4 2 3 5 6 6 5 4 4 4 4 7 6 2 2 5 7 8 7 5 6 4 1 1 2 4 3 1 5 6 5 5 4 8 8 7 7 6 6 6 6 5 5 5
26 29 31 29 31 25 8 9 22 19 13 16 18 15 15 14 7 3 4 3 1 2 1 1 3 2 1 3 5 4 1 2 3 3 2 4 2 4 4 5 7 8 3 3 6 2 1 5 7 6 5 5 3 1 1 4 4 3 5 7 7 7 6 5 5 3 3 2 3 4 3 0 5 6 4 3 2 7 7 6 6 6 6 6 5 6 5 5
29 31 31 31 31 24 9 9 21 21 15 16 17 17 16 10 4 4 2 4 2 1 1 1 2 2 4 5 3 3 2 2 1 1 2 2 4 6 3 3 6 7 4 6 4 1 2 1 1 2 3 5 5 3 2 3 6 8 6 8 7 6 5 4 3 3 3 2 5 4 3 0 3 6 4 2 3 5 3 3 5 5 6 5 5 5 5 5
31 30 31 32 30 24 11 7 19 20 14 18 20 16 12 5 3 5 5 3 3 2 1 1 1 4 9 10 3 0 3 2 1 3 2 1 4 4 2 2 4 5 3 4 4 4 3 3 1 0 1 4 6 6 4 3 6 6 4 6 5 4 4 4 4 3 2 4 5 4 3 1 3 5 3 4 6 5 4 3 4 5 6 6 5 5 5 5
29 28 32 32 27 24 11 6 18 20 17 23 20 9 6 4 2 5 4 2 3 3 4 4 3 5 10 8 4 3 4 2 1 3 5 3 3 3 3 4 4 4 1 3 1 3 3 1 1 1 0 3 5 6 4 5 4 5 5 6 5 2 2 2 3 1 2 5 3 2 2 2 5 7 7 8 9 7 7 7 6 6 7 7 7 7 7 5
29 30 34 30 25 24 14 8 18 21 22 25 14 4 6 4 7 6 4 3 2 2 4 4 2 6 10 7 4 3 3 2 3 2 2 3 4 3 1 2 5 5 3 4 3 2 1 3 2 2 1 2 4 6 3 2 0 4 6 6 5 3 3 2 3 2 3 3 2 3 2 2 4 6 9 12 10 6 6 7 7 6 7 7 7 8 8 7
31 31 31 27 24 22 15 11 18 23 24 19 8 5 5 6 6 5 6 5 1 2 3 4 6 7 7 5 5 5 3 1 3 3 2 3 5 5 3 2 3 5 4 3 3 4 3 3 3 2 2 1 3 3 5 6 3 2 3 5 6 5 4 4 4 3 3 2 3 3 2 3 2 2 6 9 8 5 5 6 5 6 7 6 7 7 7 7
30 30 28 25 23 20 15 14 20 24 21 11 5 6 8 8 4 4 7 5 1 2 3 4 9 8 3 2 1 4 3 2 3 3 3 5 6 7 6 5 5 4 6 5 3 2 3 3 3 2 3 2 3 2 3 6 3 1 1 5 3 4 5 4 3 5 3 0 2 2 3 4 3 6 7 5 5 6 5 5 5 6 5 3 5 6 5 5
30 29 25 23 22 19 16 18 22 23 16 7 6 8 8 4 3 4 6 5 4 6 8 5 4 5 4 2 1 4 1 3 4 3 4 4 3 6 5 5 6 6 5 6 3 1 3 2 4 3 3 2 1 2 1 2 3 2 2 3 4 3 8 6 2 1 3 1 3 1 3 5 4 7 8 4 5 7 4 5 5 6 4 3 4 5 4 5
29 24 19 18 20 19 17 19 22 20 10 5 9 8 2 2 3 4 4 5 5 8 10 6 2 4 6 4 4 6 2 3 4 3 4 3 2 5 6 4 5 8 6 4 3 3 5 2 3 2 2 1 1 2 4 3 3 5 3 5 4 3 5 5 2 3 4 1 4 1 4 5 2 3 7 6 5 8 5 5 5 5 3 1 4 5 4 5
23 17 10 14 20 19 17 18 19 13 5 4 9 5 1 2 2 2 2 5 7 6 6 6 3 3 7 7 6 7 5 4 5 4 4 3 4 5 8 5 3 7 6 4 2 2 5 3 3 1 1 2 3 3 3 4 4 4 4 4 4 3 2 2 3 2 1 2 4 3 3 4 3 5 5 2 6 8 8 6 4 4 3 3 5 5 5 4
17 9 4 11 21 20 18 17 13 7 3 7 9 4 2 2 1 2 3 3 6 5 5 5 2 1 5 7 7 8 7 6 7 6 4 4 4 4 8 5 2 5 6 4 3 2 4 4 1 1 1 1 3 1 5 1 4 4 2 2 2 3 4 2 3 4 3 3 3 4 3 3 6 6 5 7 8 7 6 4 4 6 6 4 4 4 3 2
8 4 1 8 19 22 19 14 8 4 5 7 6 3 2 2 1 2 3 2 2 2 4 4 3 4 4 3 4 6 6 6 9 6 4 5 4 4 6 5 5 7 3 4 3 3 3 3 3 1 3 1 2 2 6 6 3 3 3 3 2 2 2 2 1 2 3 4 3 2 3 5 6 5 7 10 7 4 4 3 4 6 6 4 4 4 3 2
3 2 1 4 16 23 19 10 4 5 5 2 3 3 2 2 3 1 0 2 2 1 2 5 4 4 5 4 3 5 4 4 7 6 3 5 5 3 5 5 8 9 5 4 4 4 2 3 5 2 1 3 3 3 3 5 4 5 5 6 6 4 4 3 2 1 2 3 4 3 3 7 6 4 6 7 5 4 4 4 4 5 5 4 4 4 4 3
3 3 2 6 17 21 14 6 3 3 3 2 4 4 2 3 3 2 1 3 3 1 2 4 3 3 4 3 2 5 6 5 6 6 3 5 5 3 1 1 7 11 8 4 2 3 3 4 5 2 3 4 3 3 2 2 1 3 2 4 5 4 5 6 5 3 2 2 2 4 1 7 6 4 5 5 4 5 5 4 4 4 3 4 3 3 3 2
3 3 2 7 17 17 9 5 4 2 2 3 2 3 3 3 3 3 2 1 2 2 3 2 2 2 3 2 3 6 7 4 5 5 2 3 4 1 3 1 6 10 7 4 2 2 2 4 4 0 3 3 4 4 2 2 2 2 2 2 4 3 3 5 5 4 4 4 3 3 2 7 6 3 3 4 4 5 5 4 4 3 3 4 4 3 2 2
2 2 2 4 13 13 6 6 7 5 3 2 3 3 1 1 3 4 4 3 2 2 3 2 2 1 2 3 4 6 6 4 5 4 2 2 3 1 4 2 4 8 5 2 4 5 3 3 5 3 2 3 4 4 3 3 1 3 3 2 4 4 6 4 2 4 2 5 7 5 4 7 6 4 3 3 3 4 5 5 5 4 4 5 5 4 2 2
2 1 1 3 5 5 2 3 6 6 5 4 5 5 2 2 1 2 5 4 2 3 4 2 1 3 3 2 3 3 2 1 3 4 2 1 0 2 4 4 1 4 1 2 2 6 5 3 5 6 6 6 5 4 4 3 3 2 2 4 5 7 9 5 3 4 3 5 7 6 6 5 5 6 4 5 4 2 4 5 4 4 5 5 5 4 3 3
2 1 1 1 2 1 2 1 3 6 7 7 5 4 5 3 1 1 3 3 2 3 3 1 2 4 3 3 4 4 3 1 2 3 4 3 1 2 3 3 2 2 1 2 2 6 4 2 4 7 9 10 8 5 3 6 6 4 4 7 7 7 9 6 5 4 5 3 4 8 9 6 5 5 5 6 4 4 5 5 5 5 6 6 5 4 4 4
1 1 2 2 2 1 2 2 3 5 6 8 6 4 6 6 2 0 1 1 3 4 4 2 2 3 4 6 5 4 4 2 2 3 4 2 1 1 3 2 4 2 2 2 1 4 4 3 6 8 9 7 6 5 4 7 9 9 8 9 9 9 9 8 7 10 6 6 6 10 7 8 8 6 7 8 6 5 6 7 6 6 6 6 4 4 6 4
0 0 0 1 1 2 2 2 4 3 4 7 5 5 7 7 6 4 1 1 2 3 3 2 1 3 8 9 6 4 5 3 2 2 2 1 2 1 3 3 2 3 2 2 1 3 5 5 5 6 8 4 4 4 5 7 7 8 10 12 12 12 12 13 15 15 8 7 13 9 9 11 12 8 10 10 8 8 8 6 4 3 4 4 4 5 6 5
0 1 1 3 1 2 2 5 6 4 4 5 4 5 10 10 8 5 2 3 1 2 3 4 4 5 6 6 5 6 7 5 3 2 2 3 3 3 2 2 0 2 3 3 0 2 4 3 2 5 6 4 2 3 4 6 5 5 9 13 13 15 17 17 18 18 12 11 15 6 7 13 12 8 10 10 8 7 4 1 2 4 5 5 5 7 7 6
1 1 0 2 2 1 2 5 8 6 4 3 3 5 8 11 10 5 2 4 5 3 2 4 6 6 5 5 5 5 6 7 6 6 6 6 4 3 3 4 3 1 3 3 1 0 2 2 2 3 3 4 2 3 3 4 4 4 6 8 11 13 16 17 17 14 9 9 13 8 7 13 7 7 9 9 6 5 3 3 6 7 7 7 8 8 6 6
1 0 1 3 2 1 3 4 6 6 4 3 4 4 7 11 11 6 2 2 5 7 6 7 8 5 4 4 5 5 5 5 7 9 9 8 6 4 3 3 6 6 3 3 2 2 3 2 2 4 3 4 3 3 5 5 5 0 4 8 12 13 12 12 11 8 8 10 13 9 9 13 5 8 8 7 5 6 8 9 9 8 9 9 9 9 8 7
1 0 0 3 2 1 2 4 6 5 3 4 4 3 5 7 8 8 4 1 2 4 6 10 10 6 4 6 6 7 7 6 6 7 6 5 5 4 3 3 6 6 6 4 2 2 4 5 2 3 5 3 4 3 7 7 5 3 8 12 16 13 9 7 5 8 10 11 9 8 12 13 5 7 8 7 7 10 11 10 9 10 10 10 10 10 8 7
Wind_Direction
181 185 187 190 194 192 184 184 188 188 185 189 191 192 193 193 194 195 195 194 195 199 197 195 198 204 207 212 216 221 227 228 235 232 225 242 247 247 251 251 250 230 225 215 178 162 143 139 171 147 133 92 12 343 37 23 59 59 78 97 136 169 203 186 179 196 169 180 194 204 196 158 175 219 165 99 45 43 108 297 300 309 258 229 266 278 158 158
182 185 189 190 189 187 183 183 187 188 184 187 188 189 192 191 193 195 195 194 192 195 193 189 189 193 202 207 210 214 219 234 257 254 243 246 249 248 247 246 249 227 208 203 188 168 149 175 177 120 76 61 0 358 69 8 60 86 110 112 203 197 204 195 174 186 172 130 155 168 195 170 180 167 139 180 311 22 148 271 337 339 277 243 289 202 163 161
181 183 187 189 184 180 180 178 181 183 183 186 186 186 191 192 195 196 195 194 192 194 193 189 187 190 199 202 203 203 208 256 288 263 254 249 243 243 243 240 238 221 207 207 197 182 174 177 161 125 60 69 4 22 82 23 47 138 117 110 234 212 207 213 180 192 218 149 138 150 165 168 202 160 145 183 178 83 191 226 200 258 251 223 260 166 165 165
179 181 181 181 178 175 175 175 177 180 183 184 183 184 189 193 197 198 195 192 191 193 194 191 190 192 196 196 191 182 165 2 282 252 254 246 236 234 235 233 222 212 210 207 197 194 180 157 139 106 72 69 336 18 85 353 206 135 116 159 213 185 129 202 199 214 224 143 139 138 130 170 225 163 153 157 141 268 241 225 201 212 218 192 177 172 169 168
177 178 173 171 172 173 174 177 178 179 182 182 182 185 187 191 197 195 192 192 191 191 194 192 191 192 191 188 182 166 134 54 267 246 237 229 226 223 225 225 211 204 205 196 184 177 164 146 117 68 71 92 357 50 76 305 99 95 84 162 171 146 115 196 232 217 169 100 117 129 146 179 162 134 158 161 173 235 241 227 211 213 195 171 170 173 171 173
174 174 168 170 177 177 176 179 180 178 180 181 182 185 186 189 190 189 189 190 190 191 193 191 190 189 185 182 178 169 151 176 286 286 226 207 203 209 213 213 202 196 194 180 165 155 148 133 114 115 78 75 123 129 182 295 28 114 251 123 162 165 111 133 292 212 142 114 137 156 173 142 122 194 178 180 212 216 221 241 230 225 179 158 159 167 171 179
172 171 171 176 182 181 177 177 178 180 180 179 182 183 185 188 185 184 185 186 188 190 190 188 186 183 177 170 169 168 192 229 311 342 224 190 185 194 199 201 192 188 183 169 157 146 140 126 137 151 94 85 156 153 166 328 28 100 151 159 170 159 89 348 247 146 136 139 178 181 131 122 157 195 86 223 236 216 249 287 255 180 153 151 157 172 181 185
171 174 178 181 183 181 176 175 175 179 180 179 180 181 183 184 182 182 182 183 186 186 186 184 180 175 169 159 149 138 235 240 305 333 204 179 175 179 184 191 186 184 180 176 169 155 146 140 158 154 101 151 160 135 151 89 32 84 146 171 149 125 42 31 99 97 110 134 167 116 118 229 203 173 124 245 251 263 285 328 93 117 137 160 167 180 188 190
173 176 181 182 180 177 175 174 173 176 176 175 178 182 181 179 183 186 183 182 182 182 180 177 175 168 165 156 129 146 222 233 260 251 190 179 174 171 176 185 186 185 180 185 181 161 159 163 185 174 142 171 131 129 170 133 205 153 135 142 122 77 347 66 90 58 68 80 58 118 95 322 248 187 273 254 267 296 300 74 108 124 147 184 180 186 191 194
175 176 178 179 178 177 178 176 172 175 176 174 177 183 183 183 188 189 185 184 180 178 175 173 171 165 164 151 125 182 228 228 232 225 188 182 179 173 177 185 188 188 180 183 183 169 173 182 179 158 131 123 113 116 205 171 182 129 117 106 89 84 355 73 96 33 22 66 40 144 152 318 311 333 267 262 312 312 95 89 120 152 175 197 192 198 198 201
175 176 175 178 179 179 180 176 173 178 176 169 171 179 184 188 190 189 188 185 177 173 172 170 167 165 164 144 141 197 225 201 210 200 182 182 185 182 184 191 191 191 184 178 191 186 187 175 154 118 121 140 115 82 4 154 106 116 130 97 33 39 54 48 83 32 0 82 38 127 142 321 3 298 234 258 324 334 129 129 254 189 209 211 203 211 209 217
175 176 173 175 178 179 180 177 176 176 171 167 175 179 182 189 188 189 191 182 174 170 170 169 167 165 154 113 168 206 204 189 194 184 180 179 182 188 187 192 192 194 192 182 196 197 190 168 141 93 218 145 126 114 131 103 84 126 129 101 359 13 46 19 48 360 357 106 10 107 96 302 235 232 246 277 324 13 116 181 255 226 247 250 232 234 222 228
176 175 174 175 177 179 179 178 178 171 167 178 183 176 176 186 186 191 190 178 170 167 167 168 167 162 142 94 216 212 204 186 183 180 178 175 177 183 180 185 187 195 204 194 188 188 182 170 139 98 108 110 124 173 122 69 55 126 66 92 59 25 23 351 358 331 85 96 330 111 221 280 252 256 268 305 327 16 112 230 252 251 260 268 254 251 239 233
177 177 176 176 178 181 180 179 180 172 174 185 177 163 174 182 184 190 183 173 166 163 164 165 162 152 130 204 210 202 201 184 180 180 174 173 168 164 167 177 185 190 199 190 167 158 164 156 119 96 96 88 130 124 70 28 21 91 66 53 76 128 248 315 339 356 124 97 5 100 182 273 266 270 279 316 326 205 258 262 263 266 263 261 255 250 250 239
178 179 177 177 180 182 181 182 182 181 186 181 161 161 178 180 183 183 172 166 160 159 158 157 157 141 102 260 216 183 187 176 177 181 176 174 163 153 159 162 161 154 155 154 138 132 142 133 101 89 71 29 104 96 54 25 20 46 110 324 5 159 243 316 347 52 124 91 34 97 197 275 267 267 275 322 22 157 243 276 285 275 262 255 250 244 246 250
179 179 176 175 179 182 183 184 185 189 189 171 159 170 176 169 167 160 160 158 150 154 150 150 161 144 107 208 168 163 178 177 176 178 176 175 172 157 145 138 124 118 124 121 120 119 111 98 79 99 107 70 98 104 77 39 7 354 99 167 235 160 238 316 355 358 74 116 25 87 201 269 277 272 280 320 55 99 265 281 286 275 265 254 243 243 243 254
178 179 176 174 177 179 182 185 185 187 181 165 163 165 157 145 144 143 147 142 136 142 139 149 163 149 80 147 148 174 180 171 169 169 171 176 180 160 140 121 101 108 109 106 111 97 55 54 58 149 72 75 109 104 95 52 256 283 48 120 195 168 181 278 266 319 39 115 156 52 219 246 265 281 285 291 352 66 278 272 277 273 268 257 245 249 244 247
178 179 176 176 178 177 180 182 181 180 171 163 155 140 130 122 122 131 134 127 120 119 112 136 148 138 247 190 170 182 154 150 156 158 161 166 170 160 141 115 113 109 94 81 76 49 28 32 71 109 48 59 130 115 137 201 190 174 158 132 162 190 193 245 234 264 31 96 175 73 259 259 274 283 283 280 218 225 258 258 268 271 265 261 253 248 245 245
178 179 177 178 179 180 181 179 176 172 165 157 141 127 117 108 104 115 128 124 117 118 135 163 149 147 215 202 157 121 125 137 145 147 146 150 155 148 118 108 112 98 98 98 47 41 71 57 75 124 134 168 188 166 168 194 165 156 166 140 148 173 220 245 250 273 4 110 201 222 236 267 280 284 284 283 209 224 267 274 270 267 262 260 251 244 245 244
177 178 177 178 180 180 177 174 172 167 163 154 141 128 115 116 111 110 129 127 148 155 181 179 160 141 141 192 129 122 119 121 127 139 144 149 146 126 78 68 76 58 103 146 140 80 93 120 167 179 184 186 179 154 140 144 129 131 127 107 139 155 193 244 264 305 318 136 236 232 248 274 272 273 276 281 305 265 269 271 267 265 260 254 247 248 244 240
175 176 178 179 182 181 173 169 168 166 166 160 151 139 139 162 151 155 163 295 222 144 8 195 138 108 87 130 143 136 118 88 66 107 147 160 151 137 53 16 103 74 39 152 134 81 86 150 206 212 189 166 143 128 111 96 88 99 128 129 134 164 181 239 233 317 340 174 257 12 316 273 263 266 269 273 283 257 247 246 254 257 256 253 246 250 250 253
173 176 178 179 181 181 174 167 165 168 173 170 170 190 190 188 153 150 146 112 213 97 48 120 99 70 36 132 158 148 82 86 92 60 162 157 153 161 158 70 127 151 261 120 115 103 124 206 226 211 150 108 87 96 95 88 89 86 111 132 146 205 204 288 298 335 6 131 267 354 324 274 263 262 263 258 247 248 244 236 244 252 258 260 247 247 261 275
174 175 176 178 179 175 170 165 164 173 179 179 193 214 167 169 145 142 126 90 148 7 55 117 125 110 56 132 185 141 84 121 158 223 216 141 143 167 133 108 130 137 144 162 150 147 179 248 238 181 143 112 83 76 96 86 81 92 111 133 166 220 162 186 247 324 17 58 289 263 279 282 282 284 275 265 254 265 274 261 255 249 252 261 264 265 269 270
175 175 175 177 174 168 165 162 163 177 186 190 207 195 147 144 154 146 99 77 126 332 46 149 153 149 131 156 182 139 102 129 160 179 198 141 141 147 138 137 130 129 166 171 145 148 192 276 173 143 139 124 111 101 116 107 71 57 148 143 162 186 172 185 183 90 14 22 33 36 310 294 311 321 286 296 331 294 302 307 279 260 253 265 278 276 260 256
176 175 176 174 170 162 158 157 168 183 186 199 212 190 142 147 165 158 84 81 112 335 328 189 91 179 161 126 151 153 122 94 157 203 181 137 141 137 137 132 127 157 181 140 123 145 211 290 137 138 129 121 125 143 164 137 111 247 211 175 170 166 154 138 114 87 48 6 4 26 341 288 316 311 268 306 344 306 311 317 288 287 289 274 274 276 269 266
177 176 175 173 165 156 153 158 183 181 177 206 204 177 148 156 169 175 83 70 279 258 162 157 129 171 165 107 105 138 120 128 297 352 90 125 136 119 131 94 58 163 178 140 125 151 173 14 96 134 138 130 133 171 199 148 119 169 225 162 142 131 127 135 130 100 105 203 339 44 147 258 314 304 271 316 330 301 303 299 288 297 301 288 274 279 283 282
177 176 173 170 162 157 154 163 174 168 170 211 193 170 159 161 167 178 72 54 273 175 130 178 336 158 163 247 97 133 155 200 124 57 61 115 112 65 124 173 97 140 177 129 132 213 133 105 81 105 114 123 141 186 205 146 128 183 243 120 123 121 129 141 118 98 172 209 334 17 102 218 298 276 274 329 328 302 305 306 306 308 301 303 292 281 278 274
177 175 171 167 164 163 161 153 161 169 188 183 173 166 159 157 163 133 87 105 238 126 126 242 72 131 147 35 63 104 199 186 120 174 340 73 121 49 105 180 146 132 141 126 173 251 116 156 169 137 119 142 174 217 200 129 112 232 214 117 118 117 120 116 94 89 24 27 298 328 38 159 266 275 301 354 331 290 295 298 301 304 304 311 307 301 296 282
175 172 170 166 167 172 184 169 169 182 188 165 162 164 151 151 157 81 88 169 169 83 82 130 110 112 104 62 47 46 28 41 109 213 342 63 66 50 113 178 133 114 50 85 159 209 87 185 188 145 140 175 175 263 225 114 102 183 147 101 82 77 79 75 84 95 47 38 236 279 5 200 265 285 307 12 303 263 274 282 276 280 287 291 296 305 314 317
173 170 169 166 170 180 191 189 184 184 179 165 160 155 145 144 132 97 160 204 140 96 31 118 156 153 129 113 36 4 68 41 3 56 19 50 29 32 103 151 104 103 40 40 93 244 310 248 199 110 144 169 136 89 41 85 120 139 119 82 68 45 40 51 55 77 68 313 252 262 316 320 271 280 258 205 219 218 228 283 287 291 298 294 292 302 320 333
173 171 170 168 175 182 175 187 189 180 173 164 153 148 138 99 69 137 189 202 112 102 90 130 185 140 149 150 140 65 84 32 315 114 130 125 42 47 107 110 76 76 49 46 37 339 359 29 356 29 106 123 102 74 40 44 98 107 96 96 88 19 14 28 3 40 106 252 261 277 305 173 219 262 252 240 253 227 201 238 272 285 301 306 308 318 328 333
175 174 173 173 178 183 183 191 180 172 166 158 147 140 119 84 181 180 177 161 146 185 175 171 201 167 161 148 125 151 125 86 243 138 145 145 130 153 151 162 148 96 131 171 73 4 34 35 308 1 319 149 112 85 43 350 24 80 108 112 101 24 17 4 319 342 206 242 267 291 289 212 232 252 258 262 263 239 218 225 237 256 279 293 313 328 327 325
171 169 171 176 182 190 201 195 175 168 162 154 140 77 81 132 205 190 163 180 185 186 146 126 144 154 150 138 139 160 109 114 189 143 134 134 145 182 199 165 143 117 171 176 129 110 14 309 302 88 250 210 134 122 135 252 234 130 140 132 133 120 97 234 264 289 255 257 288 287 268 259 269 265 250 249 250 232 220 230 233 246 263 280 306 316 308 310
166 168 173 179 187 198 210 199 180 170 159 152 130 85 122 182 199 151 162 204 252 57 90 104 117 130 142 146 177 174 98 59 179 112 88 126 144 187 220 221 142 99 110 136 148 161 164 259 240 163 222 192 148 164 151 140 130 164 162 126 146 155 146 195 209 197 229 268 303 293 268 201 210 275 241 236 257 271 252 256 264 260 261 277 299 301 299 305
168 172 174 178 191 203 208 196 181 170 161 146 118 152 181 198 188 147 171 190 177 79 67 103 124 132 147 68 156 192 128 141 178 116 141 165 168 189 189 195 192 133 123 152 194 168 152 235 271 290 279 142 152 225 116 107 110 239 123 101 152 182 135 135 171 169 164 2 304 266 245 215 210 286 277 254 285 291 275 290 301 276 279 326 309 295 300 302
176 176 173 179 193 196 189 183 175 173 168 137 146 190 202 189 177 183 166 145 148 135 112 102 108 130 158 82 177 224 112 114 156 145 179 193 194 196 187 190 189 174 157 153 163 163 150 256 317 339 345 53 166 226 77 106 166 151 124 162 208 167 112 114 164 78 81 144 267 226 253 287 324 295 295 324 301 290 295 297 283 274 301 354 308 285 296 303
174 172 168 176 184 177 171 171 171 173 168 145 179 200 200 147 167 167 138 123 143 138 129 140 160 150 163 162 189 202 168 118 151 164 182 194 219 193 188 215 193 186 191 153 155 193 154 130 338 20 68 10 258 151 62 43 112 121 172 200 183 117 95 109 132 22 46 222 276 288 238 285 342 277 316 348 281 268 271 265 274 290 308 316 284 280 288 300
156 152 150 165 168 164 163 167 168 164 131 163 193 196 110 144 161 148 145 135 136 136 144 161 167 156 169 175 182 183 174 160 167 173 170 192 242 197 172 192 203 190 192 140 129 185 129 113 329 11 136 301 336 91 91 25 48 113 176 167 116 131 153 94 129 146 113 218 278 303 274 265 201 224 298 303 230 248 256 252 266 268 230 216 265 287 304 321
143 140 130 159 159 156 159 163 158 136 131 190 198 196 162 149 136 193 196 141 119 127 164 176 152 133 173 175 168 170 179 175 167 175 179 185 236 218 176 175 186 189 183 136 146 172 115 123 215 302 264 287 4 103 176 188 19 39 98 105 73 127 159 157 146 160 170 184 248 309 323 266 222 216 226 222 223 231 231 231 238 236 223 218 247 273 300 338
135 135 111 160 159 154 152 149 137 138 188 200 188 180 179 130 142 216 214 170 111 114 171 179 155 146 161 167 158 167 180 174 168 182 200 181 195 226 203 182 159 170 151 83 124 153 100 126 162 307 320 213 181 222 191 173 144 101 117 153 163 69 115 156 95 110 137 157 181 263 300 269 247 211 201 218 234 229 210 223 249 247 241 235 236 231 211 141
105 119 87 163 163 156 147 141 153 181 191 179 133 157 195 153 146 163 195 129 108 80 150 142 140 147 152 155 162 166 158 155 173 186 203 195 193 209 215 188 158 156 132 88 132 161 139 133 145 145 250 196 220 268 206 180 169 158 169 182 174 143 124 150 243 270 106 133 165 169 259 269 255 210 205 220 242 267 262 249 260 269 260 247 236 221 198 144
106 128 136 161 165 159 149 156 183 150 147 168 157 152 158 150 137 135 131 93 87 61 68 97 117 134 149 156 149 157 151 148 183 189 191 204 193 177 237 174 150 155 148 133 153 163 130 103 114 149 212 210 261 301 216 211 166 134 179 189 164 152 131 146 202 222 125 122 140 118 261 271 260 221 217 226 244 269 265 235 252 283 264 241 234 230 230 204
108 125 122 156 169 169 157 169 186 135 156 198 144 105 120 139 127 133 157 100 92 82 50 82 147 141 165 165 139 163 166 161 183 188 187 193 177 182 319 330 156 156 148 140 155 156 124 100 105 66 305 309 326 345 17 14 52 125 230 183 151 173 141 143 177 169 141 166 142 89 278 268 272 263 229 232 250 269 260 218 223 260 259 238 226 214 230 265
93 123 62 123 170 179 174 180 189 179 165 119 89 99 90 108 129 142 159 166 155 127 111 149 180 149 167 148 137 167 179 177 186 189 176 169 169 14 354 341 176 160 151 180 176 168 181 152 128 110 35 357 348 352 340 321 257 195 220 188 157 135 103 100 121 103 131 200 161 144 231 255 280 313 322 306 305 295 271 229 201 214 230 224 217 211 212 268
76 111 26 68 149 176 207 196 180 167 153 122 122 144 117 57 52 162 147 148 167 144 135 157 143 103 123 119 101 135 153 131 170 175 141 124 304 1 12 353 236 172 192 302 172 158 171 175 151 147 165 189 200 209 226 217 185 203 206 181 176 150 140 148 119 111 224 223 159 169 228 251 298 322 326 321 323 281 252 241 216 218 228 224 222 227 229 222
114 123 159 82 66 37 324 324 135 154 165 151 143 165 151 124 324 309 115 130 178 143 103 110 124 91 95 130 124 148 174 57 71 149 139 138 210 316 342 8 70 141 297 351 115 136 134 191 190 183 196 198 190 197 174 127 143 188 182 170 176 171 164 146 109 163 201 162 166 221 232 234 263 276 272 276 269 235 233 232 224 225 230 230 231 247 255 232
131 155 160 138 90 116 299 308 138 150 167 166 166 174 157 140 134 52 48 118 178 143 75 66 139 130 156 158 141 161 173 95 58 117 120 130 183 296 314 60 85 25 350 24 76 105 112 208 207 200 218 206 163 179 171 140 164 182 165 162 173 173 167 158 185 209 167 117 230 235 214 230 240 222 233 245 236 238 244 231 221 216 219 229 250 276 279 271
61 164 183 37 104 167 201 195 168 145 151 166 166 156 156 154 155 166 141 29 150 146 101 92 202 182 172 165 148 145 149 121 104 131 110 128 146 74 8 46 61 333 13 55 354 91 134 205 207 192 217 206 126 156 176 158 165 169 164 172 174 172 177 185 210 217 163 165 239 223 164 221 235 198 212 227 210 217 226 216 216 226 241 263 276 269 265 263
46 102 341 360 36 164 144 138 152 158 166 166 155 161 171 170 166 166 133 101 154 211 139 145 199 199 174 162 135 142 166 163 157 176 167 159 145 114 90 102 268 340 61 101 47 100 151 206 185 172 209 222 165 161 166 154 149 158 177 183 177 178 188 196 213 220 196 206 244 226 175 234 240 187 209 229 211 210 212 172 243 246 252 260 249 241 241 246
97 118 126 56 55 95 130 138 150 164 190 186 165 175 179 175 171 166 145 143 162 194 163 151 178 176 158 149 124 139 179 168 157 176 170 157 163 171 170 175 171 71 70 120 144 163 192 197 102 125 192 258 242 153 141 141 150 173 192 193 188 190 200 208 216 219 204 222 251 253 244 261 250 164 205 233 214 210 237 248 240 233 235 238 237 239 237 245
108 322 129 110 100 143 160 157 154 158 182 201 183 174 178 183 174 149 133 170 155 167 172 159 158 146 127 142 135 146 173 159 154 168 163 158 171 178 187 180 155 143 140 143 129 127 164 161 62 96 160 261 294 135 129 84 77 106 238 208 200 198 205 214 216 205 185 208 236 246 253 260 232 158 201 224 191 207 231 234 234 233 230 226 227 234 234 242
123 342 55 102 108 178 167 159 162 168 182 185 183 174 169 177 163 139 144 233 123 151 164 155 152 141 142 177 181 171 163 140 129 141 137 127 124 115 110 120 126 138 152 146 118 113 142 143 113 132 169 266 326 122 129 90 75 262 247 213 201 202 203 204 224 226 207 200 210 217 234 246 210 156 201 210 187 211 226 224 227 233 229 220 220 227 228 230